Flag for Malaysia Weather past 2 weeks in Kuching, Malaysia

Now
90 °F

Partly sunny.


Feels Like: 100 °F
Forecast: 77 / 93 °F
Wind: 10 mph from Southeast

Location: Kuching Airport

Current Time: Jul 2, 2015 at 12:39:27 PM

Latest Report: Jul 2, 2015 at 11:30 AM


Visibility: N/A

Pressure: 29.89 "Hg

Humidity: 63%

Dew point: 75 °F

Location of KuchingLocation

Historic Weather in Kuching — Graph

°F

Kuching temperature yesterday

Maximum temperature yesterday: 95 °F (at 2:30 PM)
Minimum temperature yesterday: 75 °F (at 5:00 AM)
Average temperature yesterday: 85 °F

Past Weeks' High & Low Weather Summary

 TemperatureHumidityPressure
High95 °F (Jun 27, 3:00 PM)100% (Jun 18, 7:00 AM)30.01 "Hg (Jun 18, 7:00 AM)
Low75 °F (Jun 18, 3:30 AM)44% (Jul 1, 2:30 PM)29.71 "Hg (Jun 17, 3:00 PM)
Average84 °F80%29.84 "Hg
* Reported Jun 17 11:00 AM — Jul 2 11:30 AM, Kuching, Weather by CustomWeather, © 2015

Note: Actual official high and low records may vary slightly from our data, if they occured in-between our weather recording intervals... More about our weather records

Advertising

Kuching weather history for previous 24 hours

 ConditionsComfort  
Time TempWeatherWind HumidityBarometerVisibility
11:30 AM
Thu, Jul 2
90 °FPartly sunny.10 mph63%29.89 "HgN/A
11:00 AM88 °FPartly sunny.9 mph62%29.89 "HgN/A
10:30 AM88 °FPartly sunny.10 mph66%29.92 "HgN/A
10:00 AM86 °FPartly sunny.9 mph66%29.92 "HgN/A
9:30 AM84 °FPartly sunny.7 mph70%29.92 "HgN/A
9:00 AM81 °FPartly sunny.3 mph79%29.92 "HgN/A
8:30 AM79 °FPartly sunny.5 mph84%29.92 "HgN/A
8:00 AM79 °FPartly sunny.2 mph89%29.92 "HgN/A
7:30 AM77 °FPartly sunny.2 mph89%29.92 "HgN/A
7:00 AM75 °FPartly sunny.No wind94%29.89 "HgN/A
6:30 AM75 °FPassing clouds.1 mph94%29.89 "HgN/A
6:00 AM75 °FPassing clouds.3 mph94%29.89 "HgN/A
5:00 AM77 °FPassing clouds.1 mph89%29.86 "HgN/A
4:30 AM77 °FPassing clouds.No wind94%29.86 "HgN/A
4:00 AM77 °FPassing clouds.2 mph94%29.86 "HgN/A
3:30 AM77 °FPassing clouds.1 mph94%29.86 "HgN/A
3:00 AM77 °FPassing clouds.No wind94%29.86 "HgN/A
2:30 AM77 °FPassing clouds.No wind94%29.86 "HgN/A
2:00 AM77 °FPassing clouds.1 mph94%29.86 "HgN/A
1:30 AM79 °FPassing clouds.2 mph89%29.89 "HgN/A
1:00 AM79 °FPassing clouds.3 mph94%29.89 "HgN/A
12:30 AM79 °FPassing clouds.5 mph94%29.89 "HgN/A
12:00 AM81 °FPassing clouds.7 mph89%29.89 "HgN/A
11:30 PM
Wed, Jul 1
81 °FPassing clouds.2 mph89%29.92 "HgN/A
11:00 PM81 °FPassing clouds.5 mph89%29.92 "HgN/A
10:30 PM81 °FPassing clouds.5 mph89%29.92 "HgN/A
10:00 PM82 °FPassing clouds.No wind84%29.92 "HgN/A
9:30 PM82 °FPassing clouds.2 mph84%29.92 "HgN/A
9:00 PM84 °FPassing clouds.2 mph79%29.89 "HgN/A
8:30 PM84 °FPassing clouds.3 mph79%29.89 "HgN/A
8:00 PM86 °FPassing clouds.3 mph75%29.86 "HgN/A
7:30 PM88 °FPassing clouds.3 mph66%29.86 "HgN/A
7:00 PM88 °FPassing clouds.3 mph66%29.86 "HgN/A
6:30 PM90 °FPartly sunny.6 mph59%29.83 "HgN/A
6:00 PM91 °FPartly sunny.8 mph56%29.83 "HgN/A
5:30 PM91 °FBroken clouds.8 mph56%29.83 "HgN/A
5:00 PM93 °FBroken clouds.9 mph49%29.83 "HgN/A
4:30 PM95 °FBroken clouds.9 mph44%29.80 "HgN/A
4:00 PM95 °FBroken clouds.9 mph47%29.80 "HgN/A
3:30 PM95 °FBroken clouds.9 mph47%29.80 "HgN/A
3:00 PM95 °FBroken clouds.7 mph44%29.80 "HgN/A
2:30 PM95 °FBroken clouds.8 mph44%29.83 "HgN/A
2:00 PM93 °FBroken clouds.7 mph53%29.83 "HgN/A
1:30 PM93 °FBroken clouds.5 mph49%29.86 "HgN/A
1:00 PM91 °FBroken clouds.3 mph56%29.86 "HgN/A
12:30 PM91 °FBroken clouds.6 mph56%29.89 "HgN/A
Weather by CustomWeather, © 2015

See weather overviewHow to use our weather pages